This demonstration page uses our WeatherBlox Daily Observations layout. Learn more.

Left ArrowRight Arrow

36.19886, -115.1175

Hourly Observations for August 22, 2017

Temp ( °F °C ) Dew Point ( °F °C ) Humidity (%) Winds ( mph kmh ) Pressure ( in mb ) Visibility ( mi km ) Precip ( " mm )
12:53 am 00:53 Clear 79 26.1 56 13.3 45 45 NW 5 7 30.01 1016 10 16 N/A
1:53 am 01:53 Clear 78 25.6 56 13.3 47 47 WNW 6 9 30.00 1016 10 16 N/A
2:53 am 02:53 Clear 76 24.4 55 12.8 48 48 N N/A 30.00 1016 10 16 N/A
3:53 am 03:53 Clear 74 23.3 55 12.8 52 52 NNW 6 9 30.00 1016 10 16 N/A
4:53 am 04:53 Clear 75 23.9 52 11.1 45 45 NW 5 7 30.01 1016 10 16 N/A
5:53 am 05:53 Clear 72 22.2 55 12.8 55 55 N N/A 30.04 1017 10 16 N/A
6:53 am 06:53 Sunny 76 24.4 55 12.8 48 48 N N/A 30.05 1018 10 16 N/A
7:53 am 07:53 Sunny 81 27.2 51 10.6 35 35 NNW 3 6 30.06 1018 10 16 N/A
8:53 am 08:53 Sunny 85 29.4 50 10 30 30 NNE 3 6 30.07 1018 10 16 N/A
9:53 am 09:53 Sunny 87 30.6 50 10 28 28 ESE 3 6 30.07 1018 10 16 N/A
10:53 am 10:53 Sunny 91 32.8 50 10 25 25 ENE 5 7 30.06 1018 10 16 N/A
11:53 am 11:53 Sunny 92 33.3 49 9.4 23 23 SE 3 6 30.04 1017 10 16 N/A
12:53 pm 12:53 Sunny 94 34.4 48 8.9 21 21 SSW 5 7 30.01 1016 10 16 N/A
1:53 pm 13:53 Sunny 96 35.6 44 6.7 17 17 S 6 9 29.99 1016 10 16 N/A
2:53 pm 14:53 Sunny 98 36.7 44 6.7 16 16 ENE 7 11 29.96 1014 10 16 N/A
3:53 pm 15:53 Sunny 99 37.2 41 5 14 14 NNE 5 7 29.93 1014 10 16 N/A
4:53 pm 16:53 Sunny 98 36.7 40 4.4 13 13 S 9 15 29.91 1013 10 16 N/A
5:53 pm 17:53 Sunny 98 36.7 39 3.9 13 13 SSE 6 9 29.89 1012 10 16 N/A
6:53 pm 18:53 Sunny 97 36.1 41 5 14 14 S 10 17 29.88 1012 10 16 N/A
7:53 pm 19:53 Clear 94 34.4 42 5.6 17 17 ESE 7 11 29.89 1012 10 16 N/A
8:53 pm 20:53 Clear 93 33.9 41 5 16 16 SSE 8 13 29.91 1013 10 16 N/A
9:53 pm 21:53 Clear 92 33.3 43 6.1 18 18 S 3 6 29.91 1013 10 16 N/A
10:53 pm 22:53 Mostly Clear 89 31.7 44 6.7 21 21 N 6 9 29.91 1013 10 16 N/A
11:53 pm 23:53 Mostly Clear 87 30.6 46 7.8 24 24 N 5 7 29.91 1013 10 16 N/A

Powered by AerisWeather